Wind_Speed
45 48 49 50 51 52 54 55 56 55 56 56 56 55 53 53 53 52 51 50 50 49 48 48 47 46 46 45 44 43 42 41 41 40 39 39 38 38 38 38 37 37 36 36
44 45 44 46 48 49 52 53 54 55 55 56 56 56 54 54 54 53 52 52 51 50 50 49 49 48 47 47 46 45 44 42 41 40 41 41 40 40 40 40 39 39 39 38
41 41 42 45 47 48 50 51 53 54 54 55 56 57 55 54 54 54 53 53 53 51 51 51 50 50 49 49 48 47 46 45 44 43 42 42 41 41 40 40 40 40 40 40
40 40 43 45 46 47 49 49 50 51 52 53 55 57 56 54 54 54 53 53 52 52 51 51 51 51 50 50 50 49 48 47 46 45 45 43 42 42 41 41 41 41 41 41
38 38 41 44 46 47 47 47 48 48 49 51 51 54 55 54 53 53 53 52 52 52 51 51 51 50 50 50 51 51 50 49 48 47 46 45 44 43 42 42 42 42 42 42
35 36 38 40 43 46 46 45 46 46 47 49 49 51 52 52 51 51 52 51 51 51 50 50 51 51 51 51 51 51 50 50 49 48 47 47 46 45 44 43 43 43 42 42
32 34 36 37 40 42 44 43 42 43 46 49 47 50 52 51 51 50 51 51 50 50 50 50 50 50 50 51 51 51 51 50 50 49 48 47 47 46 45 44 44 43 43 42
29 30 32 35 37 39 41 41 41 41 45 46 45 48 49 49 49 49 49 50 49 48 49 49 49 49 49 49 49 49 49 50 50 50 49 48 48 46 46 45 45 45 44 43
27 28 29 31 34 36 38 40 38 38 40 43 44 46 47 47 47 47 48 48 48 48 48 47 48 48 48 49 49 48 48 48 48 49 49 49 48 47 46 46 45 45 45 44
25 27 28 29 31 34 36 38 39 38 37 38 40 42 44 45 44 45 46 47 48 48 48 48 48 47 48 48 48 48 48 48 48 47 47 47 47 47 47 46 46 45 45 45
23 25 25 26 29 32 34 37 39 38 37 37 37 40 41 43 44 44 44 46 46 47 47 48 48 47 47 47 48 48 48 48 48 48 47 47 47 46 46 46 47 46 46 45
22 23 24 24 27 30 33 35 37 37 36 37 37 38 38 40 42 44 44 45 45 45 47 47 47 48 48 48 48 48 48 48 48 48 48 47 47 47 47 47 47 47 47 47
21 21 21 22 24 27 30 32 35 35 34 34 36 37 37 38 39 40 42 43 44 44 45 47 47 47 48 49 49 48 48 49 49 49 49 48 48 48 48 47 47 47 47 47
20 20 20 20 21 24 28 31 33 34 34 33 35 36 37 37 38 38 39 41 42 43 44 46 47 47 48 48 49 49 50 50 50 49 49 49 49 49 49 48 48 48 47 47
19 20 20 21 21 23 27 30 33 34 33 33 32 33 36 36 36 38 39 39 40 42 43 45 46 47 48 48 49 49 49 50 50 51 50 50 50 50 49 49 49 49 49 48
19 19 20 21 22 23 25 29 31 33 33 34 34 33 35 37 36 37 37 38 39 41 43 44 45 46 47 48 49 49 49 49 49 50 51 51 51 51 50 50 50 50 50 49
16 16 18 19 21 22 24 26 29 30 31 33 34 33 34 36 36 36 37 36 38 40 41 43 45 46 47 47 48 48 48 48 49 49 49 50 50 51 51 51 50 50 50 50
14 14 15 16 19 21 22 24 26 29 31 32 33 33 34 35 35 35 36 36 36 37 39 40 43 44 45 46 47 47 47 47 48 48 48 48 48 49 49 50 50 50 50 50
13 13 13 13 16 19 21 22 25 29 31 32 33 33 34 34 35 34 35 36 36 36 38 39 40 42 43 44 45 45 46 46 46 47 47 47 47 47 48 48 49 49 49 49
12 11 11 12 14 16 18 20 22 26 29 31 33 33 33 34 34 34 35 35 35 36 38 39 39 40 41 42 42 43 43 43 44 45 45 45 46 46 46 47 47 48 48 48
12 11 11 12 13 15 17 18 20 24 27 29 30 32 33 34 34 33 35 34 34 35 36 37 38 38 39 40 40 41 41 42 42 43 44 44 44 45 46 46 46 46 46 47
12 11 11 12 13 13 15 17 19 22 24 26 28 30 31 32 33 34 34 35 35 35 35 36 37 38 39 39 39 39 40 41 41 42 42 43 43 44 44 44 44 44 45 45
11 11 11 11 13 13 14 16 18 19 21 23 25 26 28 29 31 32 33 34 34 34 35 35 36 37 37 38 38 39 39 40 40 40 41 41 42 42 42 42 43 43 43 44
11 10 10 10 11 12 13 14 16 18 19 20 22 23 24 26 27 29 30 32 32 32 33 33 34 35 36 36 37 37 38 38 39 39 39 39 40 40 41 42 42 42 42 43
11 10 10 10 11 12 13 14 15 16 17 19 20 20 21 22 23 25 27 29 30 30 31 32 33 34 34 34 35 36 37 37 37 37 37 37 38 37 38 39 40 41 42 42
11 11 10 11 11 12 13 13 14 15 16 17 18 19 20 21 22 23 24 26 28 29 29 29 30 31 32 33 33 34 35 36 36 36 36 36 36 37 37 37 38 39 40 41
Wind_Direction
256 252 249 248 248 248 247 246 246 245 245 245 244 243 241 240 241 240 240 239 239 239 239 239 239 239 239 239 239 239 239 240 241 242 242 243 244 244 245 245 245 246 246 247
255 252 249 247 244 243 243 244 245 244 245 245 244 243 242 241 240 240 240 240 240 239 239 239 239 238 238 239 239 239 239 240 241 242 242 243 244 244 245 246 247 247 247 247
256 253 249 245 243 243 242 243 244 245 244 244 244 243 240 240 240 240 240 240 240 239 240 239 239 239 238 239 239 240 240 240 240 241 242 243 244 245 246 247 247 248 249 249
256 251 247 244 242 242 243 242 243 244 245 244 243 244 241 240 241 240 239 239 240 239 239 239 239 239 239 238 239 240 240 241 241 242 243 244 245 246 247 247 247 248 249 249
257 253 249 245 242 241 242 242 242 242 244 245 243 244 242 241 240 240 239 239 239 239 239 239 239 239 239 239 239 240 240 241 242 243 244 244 245 246 247 247 248 248 249 250
257 253 251 248 244 241 241 241 242 242 242 243 241 243 242 240 239 239 238 238 238 238 238 238 238 238 238 239 239 240 240 241 242 242 244 244 245 246 247 247 248 248 249 250
257 252 249 247 243 240 239 238 239 240 239 241 240 241 242 240 239 239 238 237 237 237 237 237 238 238 239 239 239 240 240 240 241 242 243 244 245 246 247 247 247 248 249 249
258 252 249 247 244 240 238 235 235 239 239 240 239 240 240 241 240 239 238 236 235 236 236 236 236 237 237 238 238 239 239 240 241 241 242 243 244 245 246 246 247 248 248 249
261 256 251 248 244 239 236 233 234 239 241 240 240 240 240 240 240 239 238 236 235 234 235 235 236 236 236 237 237 238 239 239 240 241 242 243 244 245 246 246 247 247 248 249
263 258 252 249 244 240 236 233 231 232 234 237 239 240 240 239 239 239 238 237 236 234 234 235 235 236 236 236 237 238 239 239 239 240 241 242 243 244 246 246 247 248 248 249
266 259 251 248 243 238 234 230 228 230 233 234 235 237 238 240 240 240 239 238 237 236 235 236 235 236 236 236 237 238 238 239 239 240 241 241 243 244 245 246 247 248 249 250
269 260 254 248 245 239 235 230 226 227 229 231 235 238 238 239 240 241 240 238 237 237 237 236 236 236 236 237 237 238 238 239 240 240 241 241 242 244 245 246 247 248 249 250
270 263 256 246 242 235 232 230 225 225 226 230 232 236 237 238 238 239 239 239 238 238 237 237 237 237 237 237 237 238 239 240 240 241 242 242 243 244 245 247 248 248 249 250
268 259 252 246 241 234 229 225 223 224 226 229 231 234 235 238 238 238 238 238 238 237 237 236 237 237 238 238 238 239 239 240 241 242 242 242 243 244 245 247 248 248 249 250
269 258 250 245 239 235 228 225 223 224 227 230 230 232 234 237 238 239 240 240 239 237 236 236 237 238 238 239 239 239 240 240 241 242 242 242 243 244 246 247 248 248 249 250
271 261 252 246 240 235 231 228 225 226 227 228 229 231 233 236 237 238 239 240 239 238 237 237 237 238 239 240 240 240 240 240 241 242 242 243 243 245 246 246 247 248 249 250
279 266 257 246 239 237 236 231 228 226 226 227 228 231 232 234 236 238 239 239 238 237 237 237 237 238 239 239 240 241 241 241 242 243 243 244 244 245 246 246 247 247 248 249
287 270 263 252 242 239 236 233 232 230 230 230 231 233 235 236 238 239 240 240 238 237 237 236 236 237 238 239 240 240 241 242 242 243 243 244 245 246 247 247 248 248 249 249
294 276 263 252 246 243 241 239 236 234 235 234 235 236 238 239 237 237 239 239 240 240 239 238 237 238 239 239 240 240 241 242 242 243 244 244 245 246 247 248 248 249 249 249
301 285 269 256 251 248 246 243 239 238 238 238 240 239 239 239 238 237 238 239 239 240 241 240 239 239 240 240 240 240 241 242 243 244 244 245 244 245 246 248 249 249 248 249
308 290 275 263 255 252 250 247 244 242 240 239 241 242 243 243 243 242 241 241 242 242 241 240 240 240 240 240 240 240 241 242 243 244 245 246 246 246 246 247 248 249 249 248
314 298 282 269 259 257 254 251 248 247 245 244 244 245 247 246 246 245 243 243 243 244 243 242 242 242 242 242 241 241 242 243 244 244 245 245 246 246 246 247 248 249 249 249
315 303 288 272 266 266 264 259 252 250 251 250 249 249 249 249 249 248 246 245 244 244 245 243 244 244 243 242 242 243 243 244 244 245 245 245 245 246 246 247 248 248 249 249
314 304 293 277 271 271 267 262 256 254 255 253 252 253 251 249 248 247 245 244 244 243 242 243 244 244 242 242 242 243 243 244 244 245 245 245 246 247 247 247 247 248 248 248
312 306 297 287 282 277 271 267 262 258 255 255 254 253 251 249 249 248 245 241 241 241 241 242 244 243 241 240 241 242 243 245 244 245 245 244 245 246 247 247 247 248 249 249
309 305 300 294 288 283 278 271 263 260 258 255 252 251 251 250 249 249 247 244 243 243 242 241 241 241 240 239 241 241 243 244 244 243 244 245 245 245 246 247 247 248 248 249
Height
5600 5603 5607 5613 5617 5623 5627 5631 5636 5642 5647 5652 5657 5664 5671 5675 5681 5687 5692 5697 5703 5708 5714 5718 5723 5728 5733 5737 5742 5746 5750 5754 5758 5761 5765 5768 5771 5775 5778 5781 5784 5787 5789 5792
5586 5589 5597 5600 5603 5607 5612 5616 5622 5628 5633 5638 5643 5649 5656 5662 5668 5674 5680 5686 5692 5697 5703 5708 5713 5718 5723 5728 5732 5737 5741 5745 5749 5753 5756 5760 5763 5766 5769 5772 5776 5779 5782 5784
5573 5582 5584 5586 5589 5594 5598 5604 5610 5615 5620 5623 5629 5634 5642 5649 5655 5661 5668 5674 5680 5686 5692 5697 5702 5707 5713 5718 5722 5727 5732 5736 5740 5743 5747 5751 5754 5758 5761 5764 5767 5770 5773 5776
5562 5567 5569 5572 5577 5581 5586 5593 5598 5602 5606 5610 5616 5620 5629 5636 5642 5649 5656 5662 5668 5674 5680 5685 5691 5696 5702 5707 5712 5717 5721 5726 5730 5734 5738 5742 5745 5749 5752 5755 5758 5762 5765 5768
5550 5555 5556 5559 5566 5570 5575 5581 5586 5590 5594 5598 5603 5608 5616 5623 5630 5637 5644 5650 5656 5662 5667 5674 5680 5685 5691 5696 5701 5706 5711 5715 5720 5724 5728 5732 5736 5739 5743 5746 5749 5753 5756 5759
5539 5543 5545 5549 5554 5558 5564 5569 5574 5578 5581 5585 5593 5598 5603 5610 5618 5625 5631 5638 5644 5650 5656 5662 5668 5673 5679 5684 5689 5695 5700 5705 5709 5714 5718 5722 5726 5730 5733 5737 5740 5743 5746 5749
5529 5532 5534 5538 5542 5547 5552 5558 5563 5566 5568 5574 5584 5586 5592 5600 5607 5613 5620 5626 5632 5638 5644 5650 5656 5662 5668 5673 5678 5683 5689 5694 5699 5703 5707 5712 5716 5719 5723 5727 5730 5733 5737 5740
5519 5522 5525 5528 5532 5536 5541 5547 5552 5557 5560 5567 5573 5575 5583 5589 5595 5602 5608 5614 5621 5627 5633 5639 5645 5651 5656 5662 5667 5672 5677 5682 5687 5692 5697 5701 5705 5709 5713 5716 5720 5724 5727 5730
5510 5513 5516 5519 5522 5527 5531 5536 5543 5548 5552 5557 5562 5567 5573 5578 5584 5591 5597 5603 5610 5617 5622 5628 5634 5640 5645 5651 5656 5662 5667 5671 5676 5681 5686 5690 5694 5698 5702 5706 5710 5713 5717 5720
5503 5505 5508 5510 5514 5517 5523 5528 5534 5538 5543 5547 5553 5558 5564 5569 5575 5581 5587 5593 5599 5606 5612 5617 5623 5629 5635 5640 5645 5650 5656 5661 5665 5670 5674 5679 5683 5687 5691 5695 5699 5703 5706 5709
5496 5498 5501 5503 5506 5509 5514 5519 5523 5529 5534 5540 5545 5551 5555 5559 5565 5571 5577 5583 5589 5595 5601 5607 5613 5618 5624 5629 5635 5640 5645 5650 5654 5659 5664 5668 5672 5676 5680 5684 5688 5692 5695 5698
5490 5491 5493 5496 5498 5501 5505 5510 5516 5522 5527 5532 5537 5543 5546 5551 5556 5561 5567 5573 5578 5584 5590 5596 5602 5607 5613 5619 5624 5629 5634 5639 5643 5648 5652 5657 5661 5665 5669 5673 5677 5680 5684 5687
5484 5486 5487 5490 5494 5495 5498 5502 5507 5513 5519 5523 5528 5535 5537 5541 5547 5551 5557 5562 5568 5574 5579 5585 5590 5596 5602 5607 5612 5617 5622 5627 5632 5636 5641 5645 5650 5654 5658 5662 5665 5669 5672 5676
5478 5479 5482 5484 5484 5487 5490 5495 5500 5506 5510 5515 5520 5524 5529 5533 5538 5543 5548 5553 5558 5563 5568 5574 5579 5585 5590 5595 5600 5605 5610 5615 5620 5625 5629 5634 5638 5642 5646 5650 5653 5657 5661 5664
5473 5474 5475 5476 5478 5480 5484 5488 5493 5498 5502 5508 5512 5516 5521 5525 5530 5534 5539 5543 5548 5553 5558 5563 5568 5573 5578 5583 5588 5593 5598 5603 5608 5612 5617 5621 5625 5630 5633 5637 5641 5645 5648 5652
5467 5468 5469 5471 5473 5476 5478 5482 5486 5491 5495 5500 5504 5508 5513 5517 5521 5525 5529 5534 5538 5543 5548 5552 5557 5562 5567 5572 5577 5582 5586 5591 5595 5600 5604 5608 5612 5617 5621 5624 5628 5632 5636 5639
5463 5463 5464 5466 5468 5470 5474 5477 5480 5484 5488 5493 5497 5502 5505 5509 5513 5516 5520 5524 5528 5532 5537 5541 5546 5551 5555 5560 5565 5570 5575 5579 5583 5587 5591 5596 5600 5604 5608 5612 5616 5619 5623 5627
5459 5459 5460 5462 5465 5467 5471 5472 5475 5478 5481 5485 5490 5494 5497 5501 5505 5508 5511 5515 5518 5522 5527 5531 5535 5540 5544 5548 5553 5558 5562 5567 5571 5575 5579 5583 5587 5591 5595 5599 5603 5607 5611 5614
5457 5457 5457 5458 5460 5461 5465 5466 5469 5472 5476 5479 5483 5486 5489 5492 5496 5500 5502 5505 5509 5513 5517 5521 5525 5529 5533 5537 5542 5546 5551 5555 5559 5563 5567 5571 5575 5579 5583 5587 5591 5594 5598 5602
5455 5454 5455 5455 5456 5457 5460 5461 5463 5467 5470 5473 5475 5478 5481 5484 5488 5492 5494 5497 5500 5503 5507 5510 5514 5518 5523 5526 5530 5535 5539 5543 5548 5552 5556 5560 5563 5567 5571 5575 5578 5582 5586 5589
5453 5452 5452 5452 5453 5453 5455 5456 5459 5462 5464 5466 5468 5471 5474 5477 5480 5483 5485 5488 5491 5494 5497 5501 5504 5508 5512 5516 5520 5524 5528 5532 5536 5540 5544 5548 5552 5555 5559 5563 5566 5570 5573 5577
5451 5450 5449 5449 5450 5452 5451 5452 5454 5455 5457 5459 5461 5463 5466 5468 5471 5474 5476 5479 5482 5485 5488 5491 5495 5498 5502 5506 5510 5514 5518 5522 5525 5529 5533 5536 5540 5543 5547 5551 5554 5558 5561 5565
5448 5448 5447 5447 5448 5447 5447 5447 5448 5449 5451 5453 5455 5456 5458 5460 5463 5465 5468 5470 5473 5476 5479 5482 5485 5489 5493 5496 5500 5504 5508 5511 5515 5518 5522 5525 5528 5532 5536 5539 5543 5546 5549 5553
5447 5445 5445 5444 5444 5444 5444 5444 5444 5445 5446 5447 5448 5450 5451 5453 5455 5457 5459 5461 5464 5467 5470 5473 5476 5479 5483 5487 5490 5494 5497 5501 5505 5508 5511 5514 5518 5521 5524 5527 5531 5534 5538 5541
5445 5443 5442 5442 5442 5441 5441 5440 5440 5440 5441 5442 5442 5443 5445 5446 5447 5449 5451 5453 5455 5458 5461 5464 5467 5470 5474 5477 5481 5484 5488 5491 5494 5498 5501 5504 5507 5510 5513 5516 5519 5522 5526 5529
5442 5441 5440 5439 5438 5438 5437 5436 5436 5436 5436 5436 5437 5438 5439 5440 5441 5442 5443 5445 5447 5450 5453 5456 5459 5462 5465 5468 5471 5475 5478 5481 5484 5488 5491 5494 5497 5499 5502 5505 5508 5511 5514 5517